www.pogodaiklimat.ru

Погода и климат >> Архив погоды >> Индия >> Nagpur


ПОГОДА в Nagpur

  • Прогноз погоды в Nagpur
  • Монитор погоды в Nagpur
  • Климат города

АРХИВ ПОГОДЫ в Nagpur

Время (UTC), дата Ветер
(напр.,м/с)
 
Видим.   Явления Облачность Т
(С)
Тd
(С)
f
(%)
Тe
(С)
Тes
(С)
Комфортность P
(гПа)
Po
(гПа)
Тmin
(С)
Tmax
(С)
R
(мм)
R24
(мм)
S
(см)
06 12.12 СВ 1 2000 м мгла ясно +25.2 +12.8 46 +27 +40 жарко 1015.7 1016.0
09 12.12 СВ 1 2000 м мгла 1/1 750 м
[Sc]
+27.6 +15.1 46 +30 +38 жарко 1012.5 1013.0
12 12.12 штиль 0 2000 м мгла 3/0
[Ci fib]
+22.6 +17.1 71 +27 +27 душно 1013.2 1013.0 +28.4
15 12.12 штиль 0 2000 м мгла 4/0
[Ac trans Ci fib]
+18.0 +15.6 86 +18 +18 1015.6 1016.0
18 12.12 С 2 2000 м мгла 3/0
[Ci sp]
+17.8 +16.1 90 +18 +18 1016.3 1016.0
21 12.12 С 1 2000 м мгла 4/0
[Ci sp]
+15.6 +14.6 94 +16 +16 1015.8 1016.0
00 13.12 штиль 0 2000 м мгла 4/0
[Ci sp]
+14.2 +13.1 93 +14 +14 1016.4 1016.0
03 13.12 штиль 0 2000 м мгла 3/0
[Ci fib]
+17.6 +13.0 74 +18 +21 1018.9 1019.0 +12.9
06 13.12 В 2 2000 м мгла ясно +25.4 +13.1 46 +27 +39 жарко 1017.3 1017.0
09 13.12 СВ 2 2000 м мгла 1/1 750 м
[Sc]
+28.6 +15.6 45 +31 +38 жарко 1014.3 1014.0
12 13.12 В 1 2000 м мгла 3/1 750 м
[Sc Ac trans]
+22.2 +15.2 65 +26 +26 душно 1015.0 1015.0 +29.1
15 13.12 штиль 0 2000 м мгла 3/0
[Ac trans]
+17.6 +14.5 82 +18 +18 1017.6 1018.0
18 13.12 штиль 0 1000 м мгла 3/0
[Ac trans]
+16.4 +14.7 90 +16 +16 1018.4 1018.0
21 13.12 С 2 1000 м мгла 1/0
[Ac trans]
+16.4 +13.2 81 +16 +16 1017.4 1017.0
00 14.12 штиль 0 1000 м дымка ясно +14.6 +12.4 87 +14 +14 1018.2 1018.0
03 14.12 С 2 1000 м дымка ясно +17.0 +13.8 81 +17 +20 1020.6 1021.0 +13.1
06 14.12 СВ 3 2000 м мгла ясно +25.0 +15.0 54 +28 +38 жарко 1019.5 1020.0
09 14.12 СВ 3 2000 м мгла ясно +27.0 +15.2 48 +30 +36 душно 1015.9 1016.0
12 14.12 СВ 2 2000 м мгла ясно +21.4 +16.1 72 +25 +25 комфорт 1017.4 1017.0 +27.6
15 14.12 В 2 2000 м мгла 1/0
[Ac trans]
+18.0 +14.9 82 +19 +19 1019.7 1020.0
18 14.12 С 3 2000 м мгла ясно +17.8 +12.8 73 +18 +18 1019.8 1020.0
21 14.12 С 2 2000 м мгла ясно +16.0 +12.4 79 +16 +16 1018.7 1019.0
00 15.12 штиль 0 2000 м дымка ясно +13.2 +12.1 93 +13 +13 1019.4 1019.0
03 15.12 С 2 2000 м дымка ясно +17.0 +12.3 74 +17 +20 1021.7 1022.0 +12.3
06 15.12 СВ 3 2000 м мгла ясно +25.0 +12.6 46 +27 +37 жарко 1019.5 1020.0
09 15.12 СВ 2 2000 м мгла ясно +26.8 +14.1 46 +29 +36 жарко 1016.6 1017.0
12 15.12 штиль 0 2000 м дымка 3/0
[Ci sp]
+21.4 +14.2 64 +24 +24 комфорт 1017.6 1018.0 +27.4
15 15.12 С 2 2000 м мгла 3/0
[Ci fib]
+15.8 +12.2 79 +16 +16 1020.6 1021.0
18 15.12 С 2 1000 м мгла ясно +15.0 +11.3 79 +15 +15 1020.7 1021.0
21 15.12 С 3 1000 м мгла ясно +13.8 +10.8 82 +13 +13 1018.4 1018.0
00 16.12 С 2 1000 м мгла ясно +11.6 +9.2 85 +11 +11 1020.1 1020.0
03 16.12 С 1 2000 м мгла ясно +16.2 +9.3 64 +17 +20 1021.6 1022.0 +10.5
06 16.12 СВ 2 2000 м мгла 6/0
[Ac trans]
+23.4 +11.7 48 +26 +33 жарко 1020.4 1020.0
09 16.12 В 4 2000 м мгла 8/0
[Ac trans]
+24.6 +10.6 41 +26 +28 жарко 1016.3 1016.0
12 16.12 В 3 2000 м мгла 6/1 600 м
[Sc Ac trans]
+22.0 +9.9 46 +24 +24 комфорт 1016.5 1017.0 +26.1
15 16.12 СВ 2 2000 м мгла 6/1 600 м
[Sc Ac trans]
+20.0 +11.7 59 +22 +22 комфорт 1017.9 1018.0
18 16.12 СВ 2 2000 м мгла 6/1 600 м
[Sc Ac trans]
+18.4 +10.2 59 +19 +19 1018.5 1019.0
21 16.12 С 1 2000 м мгла {дождь} 9/4 600 м
[Sc Ac trans]
+17.6 +12.2 71 +19 +19 1017.0 1017.0 0.0
00 17.12 С 2 2000 м мгла {дождь} 5/1 600 м
[Sc Ac trans]
+16.4 +9.5 64 +17 +17 1016.8 1017.0 0.0
03 17.12 С 2 2000 м мгла 9/4 600 м
[Sc Ac trans]
+18.2 +10.8 62 +19 +20 1018.8 1019.0 +15.6 0.0
06 17.12 СВ 3 2000 м мгла 9/4 600 м
[Sc Ac trans]
+21.6 +12.0 54 +24 +27 комфорт 1017.6 1018.0
09 17.12 В 3 2000 м в посл. час дождь 10/5 600 м
[Sc As op]
+20.0 +14.5 71 +23 +23 комфорт 1015.6 1016.0 0.0
12 17.12 СВ 4 2000 м слабый дождь 10/5 600 м
[Sc As op]
+17.8 +14.3 80 +18 +18 1016.4 1016.0 +26.1 0.2
15 17.12 С 3 2000 м слабый дождь 10/5 600 м
[Sc As op]
+16.8 +15.4 91 +17 +17 1018.3 1018.0 0.7
18 17.12 СВ 4 2000 м слабый дождь 10/5 600 м
[Sc As op]
+16.2 +14.1 87 +16 +16 1017.9 1018.0 1
21 17.12 С 2 1000 м слабый дождь 10/6 300 м
[Frnb As op]
+15.6 +14.6 94 +15 +15 1017.0 1017.0 1
00 18.12 штиль 0 2000 м мгла {дождь} 10/5 600 м
[Sc As op]
+15.8 +14.8 94 +16 +16 1017.8 1018.0 2
03 18.12 С 3 2000 м мгла 9/5 600 м
[Sc Ac trans]
+17.6 +15.6 88 +18 +18 1019.5 1020.0 +15.0 2
06 18.12 СВ 2 4000 м мгла 8/5 600 м
[Cu Sc Ac trans]
+20.0 +14.9 72 +23 +26 комфорт 1019.8 1020.0
09 18.12 СВ 1 4000 м мгла 5/5 600 м
[Cu Sc]
+23.8 +14.0 54 +26 +30 жарко 1016.2 1016.0
12 18.12 штиль 0 4000 м мгла ясно +19.8 +14.7 72 +22 +22 комфорт 1016.1 1016.0 +24.5
15 18.12 штиль 0 4000 м мгла ясно +15.6 +13.5 87 +15 +15 1018.2 1018.0
18 18.12 штиль 0 2000 м мгла ясно +13.0 +11.9 93 +12 +12 1018.7 1019.0
21 18.12 штиль 0 2000 м мгла ясно +12.0 +11.2 95 +11 +11 1018.6 1019.0
00 19.12 штиль 0 2000 м дымка ясно +10.4 +9.6 95 +10 +10 1019.4 1019.0
03 19.12 штиль 0 2000 м дымка ясно +15.4 +14.0 91 +15 +19 1020.6 1021.0 +9.6

 

Местоположение метеостанции Nagpur (Maharashtra, Индия): широта 21.10 долгота 79.05 высота над уровнем моря 310 м.

В архиве по умолчанию представлена погода в Nagpur за последнюю неделю. Архивные данные за месяц целиком и за предыдущие месяцы, начиная с января 2011 года, Вы можете получить, выбрав интересующий диапазон дат из раскрывающегося списка и нажав кнопку "Ввод!".


*Определитесь, кто Вы:
робот инопланетянин человек

Внимание! Время в таблицах - всемирное. Для получения местного времени необходимо прибавить поправку, которая в Nagpur равна 5.5 ч.

Смотрите также архив погоды в соседних городах и на ближайших метеорологических станциях:

Погода в Wardha (Maharashtra, Индия) (68 км)
Погода в Bramhapuri (Maharashtra, Индия) (100 км)
Погода в Chhindwara (Madhya Pradesh, Индия) (111 км)
Погода в Seoni (Madhya Pradesh, Индия) (121 км)
Погода в Yeotmal (Maharashtra, Индия) (122 км)
Погода в Gondia (Maharashtra, Индия) (126 км)
Погода в Chandrapur (Maharashtra, Индия) (128 км)
Погода в Amravati (Maharashtra, Индия) (133 км)
Погода в Betul (Madhya Pradesh, Индия) (144 км)
Погода в Pachmarhi (Madhya Pradesh, Индия) (165 км)

Пояснения к столбцам:

Ветер - указаны скорость ветра в м/с - средняя за 10 мин, порывы в срок и между сроками (в фигурных скобках) и направление, откуда дует ветер: С - северный, СВ - северо-восточный, В - восточный, ЮВ - юго-восточный, Ю - южный, ЮЗ - юго-западный, З - западный, СЗ - северо-западный.
Видимость - горизонтальная дальность видимости в метрах или километрах. При видимости от 1 до 10 км при отсутствии осадков обычно наблюдается дымка, при ухудшении видимости до 1 км и менее - туман. В сухую погоду видимость может ухудшаться дымом, пылью или мглою.
Явления - указаны атмосферные явления, наблюдавшиеся в срок или в последний час перед сроком; фигурными скобками обозначены явления, наблюдавшиеся между сроками (за 1-3 часа до срока); квадратными скобками обозначены град или гололедные отложения с указанием их диаметра в мм.
Облачность - указаны через наклонную черту общая и нижняя облачность в баллах и высота нижней границы облаков в метрах; квадратными скобками обозначены формы облаков: Ci - перистые, Cs - перисто-слоистые, Cc - перисто-кучевые, Ac - высококучевые, As - высокослоистые, Sc - слоисто-кучевые, Ns - слоисто-дождевые, Cu - кучевые, Cb - кучево-дождевые. Подробнее классификацию облаков см. в Атласе облаков (PDF).
T - Температура воздуха - температура, измеренная на высоте 2 м над землей.
Td - Температура точки росы - температура, при понижении до которой содержащийся в воздухе водяной пар достигнет насыщения.
f - Относительная влажность воздуха - влажноcть воздуха, измеренная на высоте 2 м над землей.
Te - Эффективная температура - температура, которую ощущает одетый по сезону человек в тени. Характеристика душности погоды. При расчете учитывается влияние влажности воздуха и скорости ветра на теплоощущения человека.
Tes - Эффективная температура на солнце - температура, которую ощущает человек, с поправкой на солнечный нагрев. Характеристика знойности погоды. Зависит от высоты солнца над горизонтом, облачности и скорости ветра. Ночью, в пасмурную погоду, а также при ветре 12 м/с и более поправка равна нулю.
P - Атмосферное давление - приведенное к уровню моря атмосферное давление.
Po - Атмосферное давление - измеренное на уровне метеостанции атмосферное давление.
Tmin - Минимальная температура - минимум температуры воздуха на высоте 2 м над землей.
Tmax - Максимальная температура - максимум температуры воздуха на высоте 2 м над землей.
R - Количество осадков - Количество выпавших осадков за период времени, мм. При наведении курсора мыши на число - период времени, за который выпало указанное количество осадков.
R24 - Количество осадков - Количество выпавших осадков за 24 часа, мм.
S - Снежный покров - Высота снежного покрова, см. При наведении курсора мыши на число - состояние снежного покрова и степень покрытия местности в баллах.